Stations météo

réclame
Mon MeteoGroup
Dunkerque, France (7010): Température de l'air & dewpoint: 12.06.2018 13:00:00 - 18.06.2018 13:00:00 (CEST)Dunkerque, France (7010): Vitesse du vent & gusts: 12.06.2018 13:00:00 - 18.06.2018 13:00:00 (CEST)Dunkerque, France (7010): Direction du vent: 12.06.2018 13:00:00 - 18.06.2018 13:00:00 (CEST)Dunkerque, France (7010): reduced air pressure: 12.06.2018 13:00:00 - 18.06.2018 13:00:00 (CEST)Dunkerque, France (7010): visibility: 12.06.2018 13:00:00 - 18.06.2018 13:00:00 (CEST)Dunkerque, France (7010): Quantités de précipitations: 12.06.2018 13:00:00 - 18.06.2018 13:00:00 (CEST)
Date & Time tt [°C] td [°C] ff [km/h] ff [knt] fx [km/h] fx [knt] dd ppp [hPa] vv [km] rr [mm]
18.06.2018 13:00:00 16,9 12,4 24 13 49 27 SW 1020,7 - 0,0
18.06.2018 12:00:00 16,4 12,7 23 13 52 28 SW 1020,1 - 0,0
18.06.2018 11:00:00 16,7 12,0 28 15 49 26 SW 1020,0 - 0,0
18.06.2018 10:00:00 17,1 13,0 23 12 45 24 SW 1019,8 - 0,0
18.06.2018 09:00:00 16,3 14,0 22 12 42 23 SW 1019,3 - 0,0
18.06.2018 08:00:00 16,0 14,2 21 11 40 21 SW 1018,9 - 0,0
18.06.2018 07:00:00 15,9 14,3 18 10 36 19 SW 1018,5 - 0,0
18.06.2018 06:00:00 16,2 14,2 19 11 36 20 SW 1018,5 - 0,0
18.06.2018 05:00:00 16,2 14,2 20 11 36 19 SW 1018,1 - 0,0
18.06.2018 04:00:00 15,4 13,8 15 8 27 15 SSW 1018,2 - 0,0
18.06.2018 03:00:00 15,1 13,0 14 8 31 17 SSW 1018,5 - 0,0
18.06.2018 02:00:00 15,1 12,2 15 8 36 19 SSW 1018,7 - 0,0
18.06.2018 01:00:00 15,1 11,7 18 10 32 17 SSW 1019,0 - 0,0
18.06.2018 00:00:00 15,2 11,6 22 12 38 21 SSW 1019,3 - 0,0
17.06.2018 23:00:00 15,7 10,9 19 11 40 22 SW 1019,3 - 0,0
17.06.2018 22:00:00 16,0 10,1 18 10 40 21 SW 1019,0 - 0,0
17.06.2018 21:00:00 16,2 10,3 21 12 40 22 SW 1019,2 - 0,0
17.06.2018 20:00:00 16,2 9,6 23 13 45 25 SW 1019,1 12 0,0
17.06.2018 19:00:00 16,9 9,6 23 12 51 28 WSW 1018,9 - 0,0
17.06.2018 18:00:00 17,4 9,8 30 16 55 30 SW 1018,8 - 0,0
17.06.2018 17:00:00 17,4 9,0 26 14 53 28 SW 1018,7 - 0,0
17.06.2018 16:00:00 18,2 9,0 27 15 52 28 SW 1018,5 - 0,0
17.06.2018 15:00:00 17,5 9,1 26 14 49 26 SW 1018,4 - 0,0
17.06.2018 14:00:00 16,5 10,6 19 11 44 24 W 1018,2 - 0,0
17.06.2018 13:00:00 17,0 9,7 19 10 41 22 SW 1017,8 - 0,0
17.06.2018 12:00:00 16,0 11,0 23 12 36 20 SW 1017,8 - 0,0
17.06.2018 11:00:00 15,4 11,4 21 12 35 19 SW 1017,8 12 0,0
17.06.2018 10:00:00 15,3 10,9 15 8 35 19 WSW 1017,7 - 0,0
17.06.2018 09:00:00 15,2 11,0 13 7 36 19 WSW 1017,2 - 0,0
17.06.2018 08:00:00 14,4 11,7 17 9 28 15 SSW 1016,8 15 0,0
17.06.2018 07:00:00 14,0 11,3 17 9 29 16 SSW 1016,2 - 0,0
17.06.2018 06:00:00 13,8 11,5 15 8 26 14 SSW 1016,0 - 0,0
17.06.2018 05:00:00 13,9 11,2 16 8 29 15 SSW 1016,1 - 0,0
17.06.2018 04:00:00 14,5 11,3 15 8 39 21 SW 1016,1 - 0,0
17.06.2018 03:00:00 14,3 10,3 21 12 44 24 SW 1015,6 - 0,0
17.06.2018 02:00:00 15,0 11,0 24 13 46 25 SW 1015,7 18 0,0
17.06.2018 01:00:00 15,1 10,5 22 12 38 20 SW 1015,4 - 0,0
17.06.2018 00:00:00 15,0 11,0 23 12 37 20 SW 1015,6 - 0,0
16.06.2018 23:00:00 15,4 10,6 22 12 36 19 SW 1015,4 18 0,0
16.06.2018 22:00:00 16,2 9,8 19 10 33 18 SW 1015,4 - 0,0
16.06.2018 21:00:00 16,5 9,7 20 11 41 22 SW 1015,6 - 0,0
16.06.2018 20:00:00 17,3 9,2 25 14 54 29 SW 1015,7 - 0,0
16.06.2018 19:00:00 17,2 9,1 29 16 54 29 WSW 1015,5 - 0,0
16.06.2018 18:00:00 18,1 8,1 29 16 49 26 SW 1015,8 - 0,0
16.06.2018 17:00:00 17,6 8,2 31 17 54 29 WSW 1015,8 - 0,0
16.06.2018 16:00:00 18,7 8,6 25 14 50 27 WSW 1015,6 - 0,0
16.06.2018 15:00:00 17,4 7,4 26 14 48 26 SW 1015,6 - 0,0
16.06.2018 14:00:00 17,6 9,0 23 13 46 25 WSW 1015,7 18 0,0
16.06.2018 13:00:00 17,5 8,4 22 12 46 25 SW 1015,8 - 0,0
16.06.2018 12:00:00 17,0 9,2 25 14 45 24 SW 1015,7 - 0,0
16.06.2018 11:00:00 17,2 11,9 21 12 37 20 SW 1015,6 - 0,0
16.06.2018 10:00:00 16,2 12,0 10 5 28 15 WSW 1015,5 - 0,0
16.06.2018 09:00:00 15,3 12,4 15 8 38 20 WSW 1015,5 - 0,0
16.06.2018 08:00:00 14,5 12,7 19 11 32 17 SW 1015,4 - 0,0
16.06.2018 07:00:00 13,6 12,2 14 7 26 14 SW 1014,9 - 0,0
16.06.2018 06:00:00 13,5 12,1 16 9 29 16 SSW 1015,0 - 0,0
16.06.2018 05:00:00 13,7 12,1 19 11 32 18 SW 1015,4 - 0,0
16.06.2018 04:00:00 12,8 11,2 17 9 29 16 SW 1015,6 - 0,0
16.06.2018 03:00:00 12,6 10,5 14 7 22 12 SSW 1015,8 - 0,0
16.06.2018 02:00:00 12,9 10,1 14 8 23 12 SSW 1016,1 15 0,0
16.06.2018 01:00:00 13,3 9,4 14 8 27 15 SSW 1016,3 - 0,0
16.06.2018 00:00:00 14,0 8,6 19 10 30 16 SW 1016,3 - 0,0
15.06.2018 23:00:00 14,5 8,2 13 7 29 15 SSW 1016,6 12 0,0
15.06.2018 22:00:00 15,6 8,6 17 9 31 17 SW 1016,4 - 0,0
15.06.2018 21:00:00 17,2 9,9 16 9 28 15 SW 1016,5 - 0,0
15.06.2018 20:00:00 18,8 8,7 16 9 33 18 WSW 1016,6 - 0,0
15.06.2018 19:00:00 18,0 12,9 19 10 35 19 WNW 1016,5 - 0,0
15.06.2018 18:00:00 17,8 12,3 28 15 36 19 WNW 1016,9 - 0,0
15.06.2018 17:00:00 18,1 12,3 23 12 32 17 WNW 1017,0 - 0,0
15.06.2018 16:00:00 19,0 11,6 18 10 27 15 WNW 1017,1 - 0,0
15.06.2018 15:00:00 17,8 13,1 16 9 26 14 WNW 1017,1 - 0,0
15.06.2018 14:00:00 19,3 12,8 18 10 22 12 NW 1017,1 12 0,0
15.06.2018 13:00:00 18,6 13,0 11 6 17 9 NW 1017,0 - 0,0
15.06.2018 12:00:00 18,3 12,7 12 7 17 9 NW 1016,9 - 0,0
15.06.2018 11:00:00 18,3 12,9 9 5 14 7 NW 1016,9 - 0,0
15.06.2018 10:00:00 18,1 12,8 6 3 13 7 WNW 1016,8 - 0,0
15.06.2018 09:00:00 15,7 12,3 9 5 14 8 S 1016,5 - 0,0
15.06.2018 08:00:00 14,1 11,6 9 5 13 7 SSW 1016,2 - 0,0
15.06.2018 07:00:00 13,0 11,6 9 5 12 7 SSW 1015,9 - 0,0
15.06.2018 06:00:00 12,7 11,3 6 4 12 6 SSW 1015,6 - 0,0
15.06.2018 05:00:00 12,9 11,1 6 3 14 8 SW 1015,6 - 0,0
15.06.2018 04:00:00 13,6 11,5 9 5 16 9 SSW 1015,5 - 0,0
15.06.2018 03:00:00 13,4 11,3 11 6 19 10 SSW 1015,6 - 0,0
15.06.2018 02:00:00 13,5 11,2 9 5 20 11 SSW 1015,6 15 0,0
15.06.2018 01:00:00 13,9 11,2 12 7 25 14 SSW 1015,7 - 0,0
15.06.2018 00:00:00 14,5 11,3 16 9 24 13 SW 1015,8 - 0,0
14.06.2018 23:00:00 14,8 11,6 16 9 28 15 SW 1015,5 15 0,0
14.06.2018 22:00:00 15,6 11,8 20 11 32 17 SW 1014,9 - 0,0
14.06.2018 21:00:00 17,2 11,9 18 10 37 20 SW 1014,5 - 0,0
14.06.2018 20:00:00 18,4 12,6 24 13 40 22 SW 1014,0 - 0,0
14.06.2018 19:00:00 17,4 13,7 24 13 41 22 SW 1013,9 - 0,0
14.06.2018 18:00:00 16,4 14,2 21 12 44 24 SW 1013,8 - 0,0
14.06.2018 17:00:00 15,8 14,3 24 13 46 25 SW 1013,6 - 0,2
14.06.2018 16:00:00 16,1 13,8 23 12 53 29 SW 1013,6 - 0,0
14.06.2018 15:00:00 16,4 12,4 27 15 48 26 SW 1013,3 - 0,0
14.06.2018 14:00:00 17,1 11,6 24 13 53 28 SW 1013,3 - 0,0
14.06.2018 13:00:00 17,1 11,4 24 13 44 24 SW 1013,2 - 0,0
14.06.2018 12:00:00 16,2 11,6 27 15 49 26 SSW 1013,1 - 0,0
14.06.2018 11:00:00 15,6 11,4 24 13 41 22 SW 1013,3 - 0,0
14.06.2018 10:00:00 15,9 11,7 22 12 46 25 SW 1013,4 - 0,0
14.06.2018 09:00:00 16,0 11,2 24 13 46 25 SW 1013,1 - 0,0
14.06.2018 08:00:00 14,5 9,9 17 9 27 14 S 1013,5 - 0,0
14.06.2018 07:00:00 13,3 8,8 16 9 26 14 S 1013,8 - 0,0
14.06.2018 06:00:00 12,4 7,5 16 9 24 13 SSW 1014,2 - 0,0
14.06.2018 05:00:00 12,3 7,4 16 9 23 12 S 1014,7 - 0,0
14.06.2018 04:00:00 12,5 8,0 15 8 23 12 SSW 1015,4 - 0,0
14.06.2018 03:00:00 12,8 7,9 12 6 16 9 S 1016,0 - 0,0
14.06.2018 02:00:00 13,4 8,0 13 7 18 10 S 1016,5 - 0,0
14.06.2018 01:00:00 13,7 8,1 11 6 18 10 SSW 1016,8 - 0,0
14.06.2018 00:00:00 14,0 8,4 13 7 23 13 SSW 1017,3 - 0,0
13.06.2018 23:00:00 15,5 8,2 14 7 29 16 SW 1017,6 - 0,0
13.06.2018 22:00:00 15,8 9,9 15 8 26 14 SW 1017,6 - 0,0
13.06.2018 21:00:00 16,2 10,5 11 6 18 10 WNW 1017,7 - 0,0
13.06.2018 20:00:00 16,9 9,1 8 4 19 10 WNW 1017,8 20 0,0
13.06.2018 19:00:00 17,1 7,4 4 2 13 7 NE 1018,1 - 0,0
13.06.2018 18:00:00 16,9 8,1 7 4 14 8 N 1018,4 - 0,0
13.06.2018 17:00:00 16,9 7,3 10 5 21 11 NNW 1018,8 - 0,0
13.06.2018 16:00:00 16,7 7,6 12 7 23 12 NNW 1019,1 - 0,0
13.06.2018 15:00:00 16,8 8,7 16 8 21 11 NW 1019,3 - 0,0
13.06.2018 14:00:00 16,2 9,8 14 8 22 12 NW 1019,5 - 0,0
13.06.2018 13:00:00 16,1 9,0 10 5 16 8 N 1019,7 - 0,0
13.06.2018 12:00:00 16,3 9,7 11 6 22 12 NNE 1019,5 - 0,0
13.06.2018 11:00:00 15,4 9,5 15 8 23 12 N 1019,7 20 0,0
13.06.2018 10:00:00 15,1 10,3 14 8 21 12 N 1019,4 - 0,0
13.06.2018 09:00:00 14,2 9,8 13 7 26 14 NNE 1019,1 - 0,0
13.06.2018 08:00:00 13,9 9,5 18 10 31 17 N 1018,9 - 0,0
13.06.2018 07:00:00 13,5 9,3 19 10 34 18 N 1018,7 - 0,0
13.06.2018 06:00:00 13,7 9,7 19 11 30 16 N 1018,6 - 0,0
13.06.2018 05:00:00 13,8 10,2 22 12 34 19 NNE 1018,3 - 0,0
13.06.2018 04:00:00 13,8 10,6 24 13 36 19 N 1018,3 - 0,0
13.06.2018 03:00:00 13,7 10,5 18 10 34 18 N 1018,3 - 0,0
13.06.2018 02:00:00 13,7 10,1 24 13 34 18 NNE 1018,3 - 0,0
13.06.2018 01:00:00 13,6 10,0 22 12 35 19 N 1018,3 - 0,0
13.06.2018 00:00:00 13,4 9,3 22 12 35 19 N 1018,3 - 0,0
12.06.2018 23:00:00 13,5 9,3 23 12 36 19 N 1018,2 13 0,0
12.06.2018 22:00:00 13,6 9,6 24 13 36 20 NNE 1017,7 - 0,0
12.06.2018 21:00:00 13,8 9,8 22 12 39 21 NNE 1017,3 - 0,0
12.06.2018 20:00:00 15,0 9,8 24 13 39 21 NNE 1017,0 11 0,0
12.06.2018 19:00:00 15,3 10,3 27 14 37 20 NNE 1016,8 - 0,0
12.06.2018 18:00:00 15,7 10,7 29 16 41 22 NNE 1016,9 - 0,0
12.06.2018 17:00:00 15,3 11,5 29 16 42 23 NNE 1016,9 - 0,0
12.06.2018 16:00:00 15,0 11,8 29 16 41 22 N 1016,5 - 0,0
12.06.2018 15:00:00 16,2 12,0 27 15 40 22 NNE 1016,1 - 0,0
12.06.2018 14:00:00 15,7 11,7 29 16 38 21 NNE 1015,9 - 0,0
12.06.2018 13:00:00 16,0 12,0 28 15 39 21 NNE 1015,6 - 0,0

tt = Température de l'air
td = dewpoint
ff = Vitesse du vent
fx = gusts
dd = Direction du vent
ppp = reduced air pressure
vv = visibility
rr = Quantités de précipitations

stations d'obs. à proximité